Regional Weather Roundup
Issued by NWS

Home | Current Version | Previous Version | Text Only | Print | Product List | Glossary On
Versions: 1 2 3 4 5 6 7 8 9 10 11 12 13 14 15 16 17 18 19 20 21 22 23 24 25 26 27 28 29 30 31 32 33 34 35 36 37 38 39 40 41 42 43 44 45 46 47 48 49 50
000
ASUS45 KTFX 202219
RWRMT
MONTANA HOURLY WEATHER ROUNDUP
NATIONAL WEATHER SERVICE GREAT FALLS MT
319 PM MST SAT DEC 20 2014

NOTE: "FAIR" INDICATES FEW OR NO CLOUDS BELOW 12000 FEET WITH NO
SIGNIFICANT WEATHER AND/OR OBSTRUCTIONS TO VISIBILITY.

* THESE STATIONS ARE NOT UNDER NWS QUALITY CONTROL. THEY DO NOT
   REPORT WEATHER SUCH AS PRECIPITATION OR FOG.

MTZ001>007-043-202300-
WEST OF THE DIVIDE
CITY           SKY/WX    TMP DP  RH WIND       PRES   REMARKS
KALISPELL      CLOUDY    36  30  79 CALM      29.78F
MISSOULA       CLOUDY    32  30  92 CALM      29.83F
BUTTE          CLOUDY    36  23  59 CALM      29.83F
MULLAN PASS    LGT SNOW  30  27  89 VRB5      29.70F VSB M1/4 WCI  25
* ESSEX        N/A       33  31  92 N/A        N/A
* EUREKA APT   CLOUDY    41  28  60 SE13      29.76F
* HAMILTON APT PTSUNNY   34  30  85 CALM      29.81F
* LIBBY APT    CLOUDY    34  32  92 CALM       N/A   VSB 3
* LINCOLN      N/A       33  26  75 SE1        N/A
* LOOKOUT PASS N/A       30  30 100 S4         N/A
* POLSON       N/A       35  33  92 N1         N/A
* RONAN APT    PTSUNNY   34  30  85 N/A        N/A
* SEELEY LAKE  N/A       29  26  89 N/A        N/A
* THOMP F APT  PTSUNNY   29  27  92 N/A        N/A
$$

MTZ008-052>055-202300-
SOUTHWEST MONTANA
CITY           SKY/WX    TMP DP  RH WIND       PRES   REMARKS
BOZEMAN        CLOUDY    37  27  67 CALM      29.86R
DILLON         CLOUDY    36  25  64 S5        29.84F WCI  32
* W YELLOWSTON CLOUDY    33  27  79 SW4G11     N/A
* THREE FORKS  CLOUDY    41  41 100 W8         N/A
* BOULDER HILL N/A       30  21  69 S11        N/A   WCI  21
* MONIDA PASS  N/A       27  27 100 S16G22     N/A   WCI  15
* RAYNOLDS PAS N/A       31  15  51 SE15       N/A   WCI  20
* WHITEHALL    N/A       40  26  57 S7G16      N/A   WCI  35
* WISE RIVER   N/A       33  25  72 SW3        N/A
$$

MTZ009>010-012-014-046-048-049-054-202300-
EAST SLOPES AND CENTRAL MONTANA
CITY           SKY/WX    TMP DP  RH WIND       PRES   REMARKS
CUT BANK       PTCLDY    37  27  67 SW12      29.70F WCI  29
GREAT FALLS    PTSUNNY   39  25  57 SW14      29.75F WCI  31
HELENA         PTSUNNY   37  27  67 CALM      29.82F
MALMSTROM AFB  PTSUNNY   39  25  57 SW14      29.77S WCI  31
* CONRAD       PTCLDY    41  27  58 CALM       N/A
* DEARBORN     N/A       42  24  49 S6G11      N/A
* EAST GLACIER N/A       32  24  72 W34G39     N/A   WCI  17
* MONARCH      N/A       35  15  44 SW20G30    N/A   WCI  24
* PENDROY      N/A       39  19  45 S7         N/A   WCI  34
* SWEET GRASS  N/A       37  23  57 SW14       N/A   WCI  28
* WHITE SULPH  N/A       33  21  61 S11G25     N/A   WCI  24
$$

MTZ011-013-016-021-035-040-045-047-050-051-202300-
NORTH CENTRAL MONTANA
CITY           SKY/WX    TMP DP  RH WIND       PRES   REMARKS
HAVRE          PTSUNNY   43  27  53 SW9       29.74F
LEWISTOWN      CLOUDY    39  25  57 SW10      29.78S WCI  32
* N BAR RANCH  CLOUDY    41  10  28 CALM      29.79S
* CHINOOK      PTSUNNY   39  25  57 CALM      29.75F
* CHESTER      N/A       41  23  49 SW4        N/A
* DENTON       N/A       44  20  38 E6         N/A
* JUDITH GAP   N/A       39  20  46 SW21G26    N/A   WCI  29
* LOMA         N/A       46  22  39 SW14G19    N/A
$$

MTZ017>020-022>027-061-062-202300-
NORTHEAST MONTANA
CITY           SKY/WX    TMP DP  RH WIND       PRES   REMARKS
GLASGOW        SUNNY     45  25  45 W10       29.77S
GLENDIVE       PTCLDY    39  25  57 W8        29.82S WCI  33
JORDAN         PTSUNNY   45  21  38 W8        29.80F
SIDNEY         PTSUNNY   45  27  49 SW12G17   29.81S
WOLF POINT     PTCLDY    45  27  49 W9        29.78F
* BEAVER HILL  N/A       44  27  51 SW8        N/A
* CIRCLE       N/A       43  26  51 SW7        N/A
* NAVAJO       N/A       38  31  76 W16        N/A   WCI  29
* PLENTYWOOD A PTSUNNY   37  34  89 SW7       29.75R WCI  32
* POPLAR APT   PTCLDY    41  28  60 SW7       29.77F
* SACO         N/A       43  23  45 SW15G20    N/A
$$

MTZ028>042-056>058-202300-
SOUTHCENTRAL AND SOUTHEAST MONTANA
CITY           SKY/WX    TMP DP  RH WIND       PRES   REMARKS
BAKER          PTCLDY    43  27  53 W9        29.84R
BILLINGS       CLOUDY    37  25  62 W9        29.84F WCI  30
LIVINGSTON     CLOUDY    43  21  42 W20G31    29.80F
MILES CITY     PTSUNNY   43  25  49 W7        29.84S
* FORSYTH APT  PTCLDY    46  23  40 CALM      29.84S
* LAUREL APT   CLOUDY    37  19  48 N/A        N/A
* ROUNDUP APT  PTSUNNY   43  21  42 S7         N/A
* ALZADA       N/A       44  24  45 W5         N/A
* LAME DEER    N/A       41  22  47 W5G11      N/A
* REED POINT   N/A       39  26  60 E3         N/A
* ROSCOE HILL  N/A       41  10  28 SE8        N/A
$$

REGIONAL REPORTS...DAKOTAS
CITY           SKY/WX    TMP DP  RH WIND       PRES   REMARKS
WILLISTON      PTSUNNY   39  28  65 SW8       29.77S WCI  33
DICKINSON      SUNNY     45  27  49 W9        29.79R
BEACH          SUNNY     41  27  58 W7        29.82S
CROSBY         CLOUDY    34  34 100 SW8       29.75R WCI  27
TIOGA          SUNNY     30  30 100 SW6       29.78S WCI  24
WATFORD CITY   PTSUNNY   39  30  70 SW8       29.77R WCI  33
BISMARCK       PTCLDY    34  28  79 SE5       29.84S WCI  29
GRAND FORKS    FOG       28  27  96 S10       29.94S VSB 1 1/2 WCI  19
FARGO          FOG       30  27  89 S14       29.96F WCI  19
BUFFALO SD     PTSUNNY   46  27  48 W13       29.79R
RAPID CITY     PTCLDY    50  27  41 CALM      29.88R
$$

REGIONAL REPORTS...WYOMING/IDAHO/WASHINGTON
CITY           SKY/WX    TMP DP  RH WIND       PRES   REMARKS
GILLETTE       PTCLDY    45  25  45 SE8       29.87S
SHERIDAN       PTCLDY    39  27  62 E3        29.84F
CODY           CLOUDY    37  25  62 S9        29.84F WCI  30
YELLOWSTONE LA CLOUDY    28  21  75 W7        29.91F WCI  21
SALMON         CLOUDY    36  28  73 CALM      29.88F
MULLAN PASS    LGT SNOW  30  27  89 VRB5      29.70S VSB M1/4 WCI  25
SAND POINT     N/A       36  36 100 N3        29.76F
SPOKANE        LGT RAIN  41  39  93 SE9       29.70F VSB 1 1/2
$$

REGIONAL REPORTS...ALBERTA
CITY           SKY/WX    TMP DP  RH WIND       PRES   REMARKS
CALGARY        PTSUNNY   37  18  46 S7        29.56F WCI  32
LETHBRIDGE     PTCLDY    34  27  76 SW12      29.66F WCI  25
MEDICINE HAT   PTCLDY    36  28  73 SW9       29.68F WCI  29
EDMONTON       PTSUNNY   27  18  69 SE7       29.53F WCI  19
WATERTON GATE  N/A       37  23  57 SW16G28    N/A   WCI  28
CARDSTON       N/A       37  25  62 SW7        N/A   WCI  32
MILK RIVER     N/A       37  27  67 SW9        N/A   WCI  30
$$

REGIONAL REPORTS...SASKATCHEWAN
CITY           SKY/WX    TMP DP  RH WIND       PRES   REMARKS
SWIFT CURRENT  N/A       36  25  64 W16       29.66S WCI  26
REGINA         FOG       28  28 100 SE5       29.70R WCI  22
VAL MARIE      N/A       36  28  73 W7         N/A   WCI  30
ASSINIBOIA     N/A       36  28  73 W10        N/A   WCI  29
CORONACH       N/A       37  30  76 W15G21     N/A   WCI  28

$$




USA.gov is the U.S. government's official web portal to all federal, state and local government web resources and services.